Home   Weather   Dubbo   Past weeks

Flag for Australia Past Weather in Dubbo, New South Wales, Australia — Yesterday and Last 2 Weeks

Now
27 °F

Clear.


Feels Like: 18 °F
Forecast: 33 / 65 °F
Wind: 8 mph from Southeast

Location: Dubbo Airport

Current Time: Jul 23, 2017 at 3:02:00 am

Latest Report: Jul 23, 2017 at 2:30 am


Visibility: 6 mi

Pressure: 30.15 "Hg

Humidity: 86%

Dew Point: 23 °F

Location of DubboLocation

Past Weather in Dubbo — Graph

°F

Dubbo Temperature Yesterday

Maximum temperature yesterday: 63 °F (at 3:30 pm)
Minimum temperature yesterday: 25 °F (at 6:00 am)
Average temperature yesterday: 42 °F

High & Low Weather Summary for the Past Weeks

 TemperatureHumidityPressure
High66 °F (Jul 18, 1:00 pm)100% (Jul 9, 3:30 am)30.51 "Hg (Jul 9, 3:30 am)
Low25 °F (Jul 22, 6:00 am)24% (Jul 22, 3:30 pm)29.86 "Hg (Jul 18, 3:30 pm)
Average46 °F70%30.16 "Hg
* Reported Jul 8 1:00 am — Jul 23 1:30 am, Dubbo. Weather by CustomWeather, © 2017

Note: Actual official high and low records may vary slightly from our data, if they occured in-between our weather recording intervals... More about our weather records

Advertising

Dubbo Weather History for the Previous 24 Hours

Scroll right to see more
 ConditionsComfort  
Time TempWeatherWind HumidityBarometerVisibility
1:30 am
Sun, Jul 23
28 °FClear.6 mph93%30.15 "HgN/A
1:00 am30 °FClear.5 mph80%30.15 "HgN/A
12:30 am32 °FClear.6 mph87%30.15 "HgN/A
12:00 am32 °FClear.3 mph80%30.15 "HgN/A
11:30 pm
Sat, Jul 22
34 °FClear.6 mph75%30.15 "HgN/A
11:00 pm34 °FClear.1 mph81%30.15 "HgN/A
10:30 pm36 °FClear.3 mph75%30.15 "HgN/A
10:00 pm37 °FClear.1 mph70%30.15 "HgN/A
9:30 pm39 °FClear.No wind65%30.15 "HgN/A
9:09 pm41 °FClear.No wind61%30.15 "Hg2 mi
8:30 pm43 °FClear.No wind57%30.15 "HgN/A
8:00 pm43 °FClear.2 mph57%30.12 "HgN/A
7:30 pm45 °FClear.1 mph53%30.15 "HgN/A
7:00 pm45 °FClear.1 mph49%30.12 "HgN/A
6:30 pm50 °FClear.No wind43%30.12 "HgN/A
6:00 pm48 °FClear.No wind46%30.12 "HgN/A
5:30 pm54 °FClear.2 mph35%30.12 "HgN/A
5:00 pm59 °FSunny.5 mph29%30.12 "HgN/A
4:30 pm61 °FSunny.7 mph27%30.12 "HgN/A
4:00 pm63 °FSunny.10 mph27%30.12 "HgN/A
3:30 pm63 °FSunny.8 mph24%30.15 "HgN/A
2:30 pm61 °FSunny.10 mph27%30.15 "HgN/A
2:00 pm61 °FSunny.8 mph27%30.15 "HgN/A
1:30 pm61 °FSunny.8 mph29%30.18 "HgN/A
1:00 pm61 °FSunny.8 mph29%30.18 "HgN/A
12:30 pm61 °FSunny.9 mph31%30.21 "HgN/A
12:00 pm59 °FSunny.8 mph36%30.21 "HgN/A
11:30 am57 °FSunny.3 mph39%30.24 "HgN/A
11:00 am55 °FSunny.2 mph44%30.24 "HgN/A
10:00 am45 °FSunny.8 mph66%30.27 "HgN/A
9:30 am43 °FSunny.8 mph66%30.27 "HgN/A
9:00 am37 °FSunny.7 mph81%30.27 "HgN/A
8:30 am36 °FSunny.8 mph87%30.27 "HgN/A
8:00 am32 °FSunny.9 mph87%30.24 "HgN/A
7:30 am27 °FSunny.7 mph93%30.24 "HgN/A
7:00 am25 °FClear.8 mph93%30.24 "HgN/A
6:30 am25 °FClear.8 mph93%30.24 "HgN/A
6:00 am25 °FClear.7 mph93%30.21 "HgN/A
5:30 am27 °FClear.8 mph93%30.21 "HgN/A
5:00 am27 °FClear.7 mph93%30.21 "HgN/A
4:30 am27 °FClear.7 mph86%30.21 "HgN/A
4:00 am28 °FClear.7 mph93%30.21 "HgN/A
3:30 am27 °FClear.6 mph93%30.21 "HgN/A
3:00 am28 °FClear.6 mph93%30.21 "HgN/A
Weather by CustomWeather, © 2017

See weather overviewHow to use our weather pages